TimeEST,TemperatureF,Dew PointF,Humidity,Sea Level PressureIn,VisibilityMPH,Wind Direction,Wind SpeedMPH,Gust SpeedMPH,PrecipitationIn,Events,Conditions,WindDirDegrees,DateUTC
12:53 AM,39.0,35.1,86,30.18,10.0,Calm,Calm,-,N/A,,Clear,0,2012-11-23 05:53:00
1:53 AM,37.0,34.0,89,30.17,10.0,Calm,Calm,-,N/A,,Clear,0,2012-11-23 06:53:00
2:53 AM,37.0,33.1,86,30.17,10.0,Calm,Calm,-,N/A,,Clear,0,2012-11-23 07:53:00
3:53 AM,36.0,32.0,86,30.17,10.0,Calm,Calm,-,N/A,,Clear,0,2012-11-23 08:53:00
4:53 AM,36.0,32.0,86,30.17,10.0,Calm,Calm,-,N/A,,Clear,0,2012-11-23 09:53:00
5:53 AM,35.1,30.9,85,30.17,10.0,Calm,Calm,-,N/A,,Clear,0,2012-11-23 10:53:00
6:53 AM,34.0,30.9,89,30.18,10.0,Calm,Calm,-,N/A,,Clear,0,2012-11-23 11:53:00
7:53 AM,36.0,32.0,86,30.19,10.0,Calm,Calm,-,N/A,,Clear,0,2012-11-23 12:53:00
8:53 AM,42.1,37.0,82,30.18,10.0,Calm,Calm,-,N/A,,Clear,0,2012-11-23 13:53:00
9:53 AM,55.0,36.0,49,30.17,10.0,SSW,6.9,-,N/A,,Clear,210,2012-11-23 14:53:00
10:53 AM,60.1,36.0,41,30.15,10.0,SSW,6.9,-,N/A,,Unknown,210,2012-11-23 15:53:00
11:53 AM,64.9,39.0,39,30.10,10.0,SSW,9.2,-,N/A,,Clear,210,2012-11-23 16:53:00
12:53 PM,68.0,42.1,39,30.06,10.0,West,13.8,18.4,N/A,,Clear,260,2012-11-23 17:53:00
1:53 PM,71.1,43.0,36,30.03,10.0,West,9.2,-,N/A,,Clear,270,2012-11-23 18:53:00
2:53 PM,70.0,41.0,35,30.01,10.0,WSW,12.7,19.6,N/A,,Clear,240,2012-11-23 19:53:00
3:53 PM,70.0,41.0,35,29.98,10.0,SW,10.4,-,N/A,,Clear,230,2012-11-23 20:53:00
4:53 PM,66.0,42.1,42,29.98,9.0,WSW,5.8,-,N/A,,Clear,240,2012-11-23 21:53:00
5:53 PM,61.0,42.1,50,29.99,10.0,SW,3.5,-,N/A,,Clear,220,2012-11-23 22:53:00
6:53 PM,57.0,43.0,59,29.99,10.0,SW,4.6,-,N/A,,Clear,230,2012-11-23 23:53:00
7:53 PM,57.9,42.1,56,29.98,10.0,SW,4.6,-,N/A,,Clear,220,2012-11-24 00:53:00
8:53 PM,57.0,42.1,57,29.97,10.0,SW,5.8,-,N/A,,Clear,220,2012-11-24 01:53:00
9:53 PM,55.9,42.1,60,29.96,10.0,SW,4.6,-,N/A,,Mostly Cloudy,220,2012-11-24 02:53:00
10:53 PM,55.0,42.1,62,29.96,10.0,SW,3.5,-,N/A,,Clear,230,2012-11-24 03:53:00
11:53 PM,55.0,42.1,62,29.95,10.0,WSW,5.8,-,N/A,,Clear,250,2012-11-24 04:53:00